Location: Central Falls
(41.8900°N, 71.3929°W)
Time: 07:39:01
(UTC+00:00)

Altair - Pass Details

Date: 08 December 2023
Orbit: 1501 x 1682 km, 47.2° (Epoch: 29 February)

Event Time Altitude Azimuth Distance (km) Brightness Sun altitude
Rises 09:41:21 0° 186° (S) 4,887 10.2 -25.1°
Reaches altitude 10° 09:45:30 10° 172° (S) 3,880 9.8 -24.3°
Maximum altitude 09:52:23 22° 127° (SE) 3,014 9.7 -23.0°
Drops below altitude 10° 09:59:06 10° 82° (E) 3,794 10.6 -21.8°
Sets 10:03:04 0° 68° (ENE) 4,750 11.0 -21.1°
